• Processing (Info)

  • MPEC 2005-J63 : 2003 MV7

    The following Minor Planet Electronic Circular may be linked-to from your own Web pages, but must not otherwise be redistributed electronically.

    A form allowing access to any MPEC is at the bottom of this page.


    Read MPEC 2005-J62 Read MPEC 2005-J64


    M.P.E.C. 2005-J63                                Issued 2005 May 14, 08:59 UT
    
         The Minor Planet Electronic Circulars contain information on unusual
             minor planets and routine data on comets.  They are published
       on behalf of Commission 20 of the International Astronomical Union by the
              Minor Planet Center, Smithsonian Astrophysical Observatory,
                              Cambridge, MA 02138, U.S.A.
    
                      Supported in part by the Brinson Foundation
                 Prepared using the Tamkin Foundation Computer Network
    
                                  MPC@CFA.HARVARD.EDU
              URL http://cfa-www.harvard.edu/iau/mpc.html  ISSN 1523-6714
    
                                       2003 MV7
    
                               Revision to MPEC 2003-N02
    
    Additional Observations:
         K03M07V 5C2005 05 13.37813 16 02 21.84 +05 30 01.5          21.0 R EJ063673
         K03M07V 5C2005 05 13.39479 16 02 20.63 +05 30 09.7                 EJ063673
         K03M07V 5C2005 05 13.40521 16 02 19.75 +05 30 15.9                 EJ063673
         K03M07V 5C2005 05 14.31273 16 01 15.25 +05 38 03.0          21.0 R EJ063673
         K03M07V 5C2005 05 14.32639 16 01 14.16 +05 38 09.9                 EJ063673
         K03M07V 5C2005 05 14.33692 16 01 13.36 +05 38 15.1                 EJ063673
    
    Observer details:
    673 Table Mountain Observatory, Wrightwood.  Observer J. Young.  0.6-m
        reflector + CCD.
    
    First and last observations above in comparison with prediction:
    Residuals in seconds of arc, reference and Delta-T
    050513 673 57.5- 12.4+    050514 673 57.5- 11.9+    MPO 53735   +0.00000 day
    
    Orbital elements:
    2003 MV7
    Epoch 2005 Jan. 30.0 TT = JDT 2453400.5                 MPC
    M 237.19654              (2000.0)            P               Q
    n   0.46209924     Peri.  200.37208     +0.91540175     +0.38294271
    a   1.6569620      Node   136.45527     -0.33987869     +0.90042724
    e   0.2391861      Incl.   10.37559     -0.21568983     +0.20636296
    P   2.13           H   20.2           G   0.15           U   2
    Residuals in seconds of arc
    030629 704  0.2+  0.1+    030719 448  0.1+  0.2+    030805 670  0.4-  0.4+
    030629 704  0.1-  0.7+    030719 448  0.1-  0.3+    030805 670  0.4+  0.0
    030629 704  0.3+  1.3+    030724 644  0.0   0.0     030805 670  0.1-  0.2-
    030629 246  0.0   0.5-    030724 644  0.0   0.1+    030806 176  0.0   0.2-
    030629 246  0.2+  0.2-    030724 644  0.0   0.0     030806 176  0.0   0.5-
    030629 246  0.4-  0.1-    030726 704 (0.1+  2.3+)   030806 176  0.1-  0.0
    030629 246  0.7-  0.2-    030726 704  1.5+  0.8+    030806 176  0.1+  0.2-
    030629 246  0.1-  0.0     030726 704  0.5+  1.5+    030806 176  0.4+  0.4-
    030629 246  0.2-  0.6-    030726 704  0.6-  1.6+    030810 859  1.5-  0.3+
    030629 246  0.4-  0.1+    030726 A50  0.1+  0.0     030810 859 (0.9-  2.2-)
    030629 246  0.3-  0.2+    030726 A50  0.4-  0.3-    030810 859 (2.9-  0.4-)
    030629 246  0.8-  0.2+    030726 A50  0.2-  0.4+    030817 649  0.1+  0.8+
    030629 118  0.3-  0.0     030726 A50  0.1-  0.1+    030817 649  0.1-  0.1-
    030630 118  0.5+  0.2-    030726 A50  0.1+  0.1+    030817 649  0.8-  0.2-
    030630 926  0.4-  0.3+    030727 A50  0.4-  0.3+    030819 170  0.8-  0.3+
    030630 926  0.0   0.3-    030727 A50  0.2+  1.2-    030819 170  0.2-  0.4+
    030701 673  0.1+  0.2-    030727 A50  0.5+  0.2-    030819 170  0.8+  0.3+
    030701 673  0.5-  0.0     030727 A50  0.3+  0.2-    030819 204  0.0   0.7+
    030701 673  0.5-  0.1+    030727 A50  0.1+  0.6+    030819 204  0.3-  0.4-
    030701 673  0.3-  0.1-    030728 608  0.0   0.4-    030820 859  0.6+  0.4+
    030702 704  0.3+  0.8-    030728 608  0.6+  0.0     030820 859  0.0   1.2-
    030702 704  0.4+  0.1+    030728 608  0.1-  0.5+    030820 859  0.0   0.8-
    030702 704  0.1+  1.1-    030730 170  1.1-  1.2-    030823 859  0.3+  0.2+
    030702 704  0.1+  0.5+    030730 170  0.7+  1.0-    030823 859  0.4+  0.1+
    030703 413  0.1-  0.1-    030730 170  0.3-  0.7-    030823 859  0.3+  0.8-
    030703 413  0.0   0.0     030802 176  0.2-  0.1+    030918 413  0.1-  0.1-
    030703 413  0.1+  0.3-    030802 176  0.1-  0.1+    030918 413  0.1-  0.0
    030709 644  0.1+  0.0     030802 176  0.1+  0.1+    030918 413  0.1-  0.1-
    030709 644  0.0   0.2-    030802 176  0.2+  0.0     031019 474  0.1-  0.3+
    030709 644  0.1-  0.2-    030802 176  0.4+  0.0     031019 474  0.3+  0.3+
    030714 448  0.4-  0.0     030802 151  0.2+  0.4+    031019 474  0.6+  0.0
    030714 448  1.6+  1.0-    030802 151  0.2+  0.4+    050513 673  0.1-  0.4+
    030714 448  1.6+  1.4-    030802 151  0.5+  0.5+    050513 673  0.5+  0.1-
    030718 413  0.2-  0.1-    030802 151  0.9-  0.0     050513 673  0.9-  0.6+
    030718 413  0.1-  0.2-    030804 704  0.1+  0.4+    050514 673  0.6+  0.2+
    030718 413  0.0   0.2-    030804 704  0.1+  0.4+    050514 673  0.0   0.2+
    030718 413  0.1-  0.1-    030804 704 (2.4+  1.4+)   050514 673  0.1+  0.0
    030719 448  0.4-  0.1-    030804 704  0.2+  0.4+
    
    Ephemeris:
    2003 MV7                 a,e,i = 1.66, 0.24, 10                  q = 1.2606
    Date    TT    R. A. (2000) Decl.     Delta      r     Elong.  Phase     V
    2005 05 10    16 06.25   +04 58.3    0.694    1.659   153.2    15.9    21.4
    2005 05 20    15 54.11   +06 19.2    0.657    1.627   153.7    16.0    21.2
    2005 05 30    15 40.63   +06 53.9    0.637    1.594   149.1    19.0    21.2
    2005 06 09    15 28.06   +06 33.4    0.633    1.561   141.6    23.8    21.3
    2005 06 19    15 18.56   +05 18.3    0.642    1.528   133.2    29.0    21.4
    2005 06 29    15 13.45   +03 17.6    0.660    1.496   124.9    33.9    21.6
    2005 07 09    15 13.25   +00 42.5    0.685    1.464   117.3    38.1    21.7
    2005 07 19    15 17.96   -02 16.3    0.715    1.433   110.5    41.6    21.9
    2005 07 29    15 27.23   -05 29.2    0.746    1.403   104.5    44.5    22.0
    
    Timothy B. Spahr             (C) Copyright 2005 MPC           M.P.E.C. 2005-J63
    

    Read MPEC 2005-J62 Read MPEC 2005-J64


    MPEC number:

    Enter an MPEC number in one of the following forms:

    • 1997-B01 (the full form)
    • J97B01 (the packed version of the full form)
    • B01 (the abbreviated form)